User: anonymous   Login
Location: Unspecified
(0.0000°N, 0.0000°E)
Time: 18:09:12
(UTC+00:00)
Language:

STARLINK-30803 - Orbit

View from above orbital plane
View from above orbital plane
View from above satellite
View from above satellite

Ground track
Ground track

The orbit is defined by the following mean orbital elements,

1 58157U          26145.37492800 +.00000000 +00000-0 +14541-3 0 00008
2 58157  53.1587 223.1553 0000867  81.1149 278.9951 15.31712624    06
Epoch (UTC): 25 May 2026 08:59:53
Eccentricity: 0.0000867
inclination: 53.1587°
perigee height: 470 km
apogee height: 471 km
right ascension of ascending node: 223.1553°
argument of perigee: 81.1149°
revolutions per day: 15.31712624
mean anomaly at epoch: 278.9951°

The dashed part of the orbit path shows where the satellite is in the earth's shadow,  

DLR